Regional Weather Roundup
Issued by NWS Upton, NY

Current Version | Previous Version | Text Only | Print | Product List | Glossary Off
Versions: 1 2 3 4 5 6 7 8 9 10 11 12 13 14 15 16 17 18 19 20 21 22 23 24 25 26 27 28 29 30 31 32 33 34 35 36 37 38 39 40 41 42 43 44 45 46 47 48 49 50

000
ASUS41 KOKX 020105
RWROKX

REGIONAL WEATHER ROUNDUP
NATIONAL WEATHER SERVICE NEW YORK NY
800 PM EST SUN MAR 01 2015

NOTE: "FAIR" INDICATES FEW OR NO CLOUDS BELOW 12,000 FEET WITH NO
SIGNIFICANT WEATHER AND/OR OBSTRUCTIONS TO VISIBILITY.

NYZ071-072-176-178-NJZ106-104-020200-
NEW YORK CITY METRO AREA


CITY           SKY/WX    TMP DP  RH WIND       PRES   REMARKS
CENTRAL PARK   LGT SNOW  28  23  81 CALM      30.31F
LAGUARDIA APRT LGT SNOW  28  25  86 CALM      30.29F FOG
KENNEDY INTL   FRZ RAIN  28  23  81 CALM      30.31F
NEWARK/LIBERTY LGTSLEET  27  23  86 NE3       30.30F FOG
BRNX BOT. GARD   N/A    N/A N/A N/A NW3       30.29F
TETERBORO      LGT SNOW  25  21  86 CALM      30.30F
$$

NYZ177-179-078>081-020200-
LONG ISLAND NEW YORK

CITY           SKY/WX    TMP DP  RH WIND       PRES   REMARKS
FARMINGDALE    LGT SNOW  27  24  89 CALM      30.29F FOG
ISLIP          LGT SNOW  28  25  88 N3        30.27F FOG
SHIRLEY        LGT SNOW  29  27  92 CALM      30.29F FOG
WESTHAMPTON    LGT SNOW  29  26  89 CALM      30.29F FOG
MONTAUK POINT    N/A     32  29  88 CALM      30.30F
$$

NYZ052-065-067-020200-
HUDSON VALLEY

CITY           SKY/WX    TMP DP  RH WIND       PRES   REMARKS
WHITE PLAINS   LGT SNOW  24  22  91 CALM      30.26F VSB 1
NEWBURGH       LGT SNOW  23  21  93 CALM      30.27F FOG
MONTGOMERY     LGT SNOW  23  21  92 CALM      30.26F FOG
POUGHKEEPSIE   LGT SNOW  25  21  85 CALM      30.28F FOG
ALBANY         LGT SNOW  24  19  81 S13       30.23F VSB 1   WCI  12
$$

NJZ001-105-106-008-010-013-015-019>022-104-020200-
NEW JERSEY

CITY           SKY/WX    TMP DP  RH WIND       PRES   REMARKS
NEWARK/LIBERTY LGTSLEET  27  23  86 NE3       30.30F FOG
TETERBORO      LGT SNOW  25  21  86 CALM      30.30F
CALDWELL       LGT SNOW  23  19  85 CALM      30.30F FOG
MORRISTOWN     LGT SNOW  23  21  93 CALM      30.30F
SOMERVILLE     MIX PCPN  25  21  85 N5        30.29F FOG     WCI  19
SUSSEX         LGT SNOW  23  20  88 CALM      30.27F FOG
ANDOVER          N/A     22  20  92 CALM      30.26F
TRENTON        FRZ RAIN  29  27  92 CALM      30.28F FOG
MILLVILLE      FRZ RAIN  32  30  92 CALM      30.28F FOG
ATLANTIC CITY  MIX PCPN  32  31  96 NW3       30.29F FOG
WRIGHTSTOWN    FRZ RAIN  31  31  99 SW2       30.26F
TOMS RIVER     CLOUDY    32  30  93 CALM      30.29F
BELMAR         CLOUDY    30  25  80 CALM      30.27F
$$

PAZ047>061-062-071-020200-
EASTERN PENNSYLVANIA

CITY           SKY/WX    TMP DP  RH WIND       PRES   REMARKS
PHILADELPHIA   FRZ RAIN  31  28  89 SW5       30.30F FOG     WCI  26
ALLENTOWN      CLOUDY    25  20  81 CALM      30.28F
SCRANTON       LGT SNOW  25  19  78 W7        30.20F WCI  17
$$

CTZ002-004>006-009-010-012-RIZ004-006-007-MAZ004-011-015-020200-
SOUTHERN NEW ENGLAND
 IN CT

CITY           SKY/WX    TMP DP  RH WIND       PRES   REMARKS
BRADLEY INTL   LGT SNOW  26  22  84 S8        30.27F FOG     WCI  18
HARTFORD       LGT SNOW  26  24  92 S7        30.29F VSB 3/4 WCI  18
DANBURY        LGT SNOW  24  19  81 CALM      30.27F
WTRBRY/OXFORD  SNOW      25  16  68 CALM      30.25F VSB 1/2
BRIDGEPORT     LGT SNOW  26  25  96 CALM      30.30F FOG
MERIDEN        LGT SNOW  25  23  92 CALM      30.29F VSB 1
NEW HAVEN      LGT SNOW  28  26  92 CALM      30.29F VSB 1
CHESTER        LGT SNOW  28  27  93 S3        30.28F
GROTON         LGT SNOW  28  28 100 CALM      30.29F VSB 3/4
WILLIMANTIC    LGT SNOW  26  23  88 CALM      30.29F VSB 3/4

 IN RI

CITY           SKY/WX    TMP DP  RH WIND       PRES   REMARKS
PROVIDENCE     LGT SNOW  28  26  92 S5        30.29F VSB 3/4 WCI  23
BLOCK ISLAND   CLOUDY    32  28  86 S6        30.28F WCI  26
WESTERLY       LGT SNOW  29  28  96 CALM      30.30F VSB 3/4

 IN MA

CITY           SKY/WX    TMP DP  RH WIND       PRES   REMARKS
BOSTON         LGT SNOW  27  25  92 S7        30.28F FOG     WCI  19
WORCESTER      LGT SNOW  23  20  88 SW10      30.20F FOG     WCI  12
WESTFIELD      LGT SNOW  24  21  88 S5        30.25F FOG     WCI  18
PROVINCETOWN   CLOUDY    28  27  93 S9        30.31F WCI  20
NANTUCKET      LGT SNOW  33  30  88 SE9       30.31F FOG     WCI  25
$$

ANZ330-335-338-340-345-350-353-355-020200-
COASTAL MARINE OBSERVATIONS


STATION/POSITION TIME  SKY/WX   TEMP    WIND        PRES    VSBY  WAVE
                                AIR SEA DIR/SP/G                  HT/PER
                 (UTC)          (F)     (DEG/KT/KT) (MB)    (MI)  (FT/S)
NY HARB ENTRANCE 0100            28 35  170/  2/  2 1025.5          1/ 9
4S FIRE IS       NOT AVBL
20S FIRE ISLAND  0000               36              1027.5          2/ 8
23SW MTP         0100                                 N/A           2/10
HUDSON CANYON    NOT AVBL
EXECUTION ROCKS  NOT AVBL
WESTERN LI SOUND NOT AVBL
CENTRAL LI SOUND NOT AVBL
EASTERN LI SOUND NOT AVBL
ROBBINS REEF     0100            25     360/  1/  2 1024.8
$$


>>>>>>>>>>>>>>>>>>>>>>>>>>>> KEY <<<<<<<<<<<<<<<<<<<<<<<<<<<
>                                                          <
>     SKY/WX - SKY CONDITION/PRESENT WEATHER               <
>     TMP    - TEMPERATURE IN FAHRENHEIT                   <
>     DP     - DEWPOINT IN FAHRENHEIT                      <
>     RH     - RELATIVE HUMIDITY IN PERCENT                <
>     WIND   - DIRECTION AND SPEED IN MPH                  <
>     PRES   - MEAN SEA LEVEL PRESSURE IN INCHES OF HG     <
>     WCI    - WIND CHILL INDEX                            <
>     VSB    - VISIBILITY IN MILES                         <
>     HX     - HEAT INDEX                                  <
>     TC     - TEMPERATURE IN CELSIUS                      <
>     VRB    - VARIABLE WIND DIRECTION                     <
>                                                          <
>>>>>>>>>>>>>>>>>>>>>>>>>>>> KEY <<<<<<<<<<<<<<<<<<<<<<<<<<<




USA.gov is the U.S. government's official web portal to all federal, state and local government web resources and services.